This is the latest recevied weather packets stored in our database for station/object E25XKG-15. If no packets are shown the sender has not sent any weather packets the latest 10 day(s).
| Time | Temp. | Humidity | Pressure | Rain* | Wind** | Luminosity | Snow |
|---|---|---|---|---|---|---|---|
| 1777419025 | 33.33° C | 50% | 1002.9 hPa | - | - | - | - |
| 1777418724 | 32.78° C | 53% | 1002.6 hPa | - | - | - | - |
| 1777418423 | 33.33° C | 51% | 1002.7 hPa | - | - | - | - |
| 1777418122 | 32.78° C | 49% | 1002.3 hPa | - | - | - | - |
| 1777417821 | 33.33° C | 47% | 1002.6 hPa | - | - | - | - |
| 1777417520 | 33.33° C | 47% | 1002.5 hPa | - | - | - | - |
| 1777417220 | 33.33° C | 48% | 1002.4 hPa | - | - | - | - |
| 1777416919 | 33.33° C | 50% | 1002.4 hPa | - | - | - | - |
| 1777416618 | 33.33° C | 48% | 1002.3 hPa | - | - | - | - |
| 1777416317 | 33.33° C | 47% | 1002.3 hPa | - | - | - | - |
| 1777416016 | 32.78° C | 48% | 1002 hPa | - | - | - | - |
| 1777415715 | 33.33° C | 48% | 1002.2 hPa | - | - | - | - |
| 1777415414 | 33.33° C | 48% | 1002.2 hPa | - | - | - | - |
| 1777415114 | 33.33° C | 49% | 1002.1 hPa | - | - | - | - |
| 1777414813 | 33.33° C | 48% | 1002 hPa | - | - | - | - |
| 1777414512 | 33.33° C | 49% | 1001.9 hPa | - | - | - | - |
| 1777414211 | 33.33° C | 47% | 1002 hPa | - | - | - | - |
| 1777413910 | 33.33° C | 46% | 1002 hPa | - | - | - | - |
| 1777413609 | 33.33° C | 48% | 1001.9 hPa | - | - | - | - |
| 1777413308 | 33.33° C | 48% | 1001.9 hPa | - | - | - | - |
| 1777413007 | 33.33° C | 46% | 1001.9 hPa | - | - | - | - |
| 1777412706 | 33.33° C | 46% | 1001.9 hPa | - | - | - | - |
| 1777412405 | 33.33° C | 47% | 1001.9 hPa | - | - | - | - |
| 1777412104 | 33.33° C | 47% | 1001.8 hPa | - | - | - | - |
| 1777411803 | 33.33° C | 47% | 1001.9 hPa | - | - | - | - |
* Rain since midnight (hover to see other rain measurements)
** Current wind speed in m/s (hover to see current wind gust speed)